Location: Brantley
(31.5822°N, 86.2569°W)
Time: 07:52:59
(UTC+00:00)

Transit 2A Rocket - Pass Details

Date: 21 February 2026
Orbit: 583 x 900 km, 66.7° (Epoch: 12 March)

Event Time Altitude Azimuth Distance (km) Brightness Sun altitude
Rises 19:38:58 0° 185° (S) 3,418 9.0 41.7°
Reaches altitude 10° 19:41:31 10° 178° (S) 2,515 8.5 41.4°
Maximum altitude 19:47:00 42° 109° (ESE) 1,262 6.4 40.7°
Drops below altitude 10° 19:52:37 10° 41° (NE) 2,574 7.4 40.0°
Sets 19:55:14 0° 35° (NE) 3,507 7.9 39.6°
